Regional Weather Roundup
Issued by NWS Sioux Falls, SD

Home | Current Version | Previous Version | Text Only | Print | Product List | Glossary On
Versions: 1 2 3 4 5 6 7 8 9 10 11 12 13 14 15 16 17 18 19 20 21 22 23 24 25 26 27 28 29 30 31 32 33 34 35 36 37 38 39 40 41 42 43 44 45 46 47 48 49 50
000
ASUS43 KFSD 302010
RWRFSD

WEATHER ROUNDUP FOR SE SOUTH DAKOTA/SW MINNESOTA/NW IOWA
NATIONAL WEATHER SERVICE SIOUX FALLS SD
300 PM CDT THU JUL 30 2015

NOTE: "FAIR" INDICATES FEW OR NO CLOUDS BELOW 12,000 FEET WITH NO
SIGNIFICANT WEATHER AND OR OBSTRUCTIONS TO VISIBILITY.


SDZ038>040-050-052>070-302100-
SOUTHEAST SOUTH DAKOTA

CITY           SKY/WX    TMP DP  RH WIND       PRES   REMARKS
BROOKINGS      SUNNY     82  54  36 W12       30.16S
CHAMBERLAIN    SUNNY     86  56  35 SW3       30.15S
HURON          SUNNY     88  52  29 MISG      30.12F
MADISON        FAIR      82  57  42 W6        30.16S
MITCHELL       SUNNY     89  57  33 CALM      30.13F
SIOUX FALLS    MOSUNNY   85  62  46 W9        30.14F
WINNER         FAIR      92  43  18 NW8       30.17S
YANKTON        SUNNY     86  61  42 W7        30.12F
$$

MNZ071-072-080-081-089-090-097-098-302100-
SOUTHWEST MINNESOTA

CITY           SKY/WX    TMP DP  RH WIND       PRES   REMARKS
FAIRMONT       SUNNY     82  55  39 NW10      30.12F
JACKSON        SUNNY     84  59  42 W8        30.15S
LUVERNE        SUNNY     84  59  42 W6        30.15F
MARSHALL       SUNNY     84  52  32 NW10      30.13S
MONTEVIDEO     SUNNY     86  61  42 W7        30.11S
PIPESTONE      SUNNY     82  57  42 W7        30.15F
REDWOOD FALLS  SUNNY     84  56  38 NW12G18   30.10F
TRACY          SUNNY     84  55  37 W3        30.13F
WINDOM         SUNNY     82  55  39 W5        30.14S
WORTHINGTON    SUNNY     82  59  44 W6        30.15S
$$

IAZ001>003-012>014-020>022-031-032-NEZ013-014-SDZ071-302100-
NORTHWEST IOWA

CITY           SKY/WX    TMP DP  RH WIND       PRES   REMARKS
CHEROKEE       SUNNY     83  65  53 W12       30.15S
DENISON        SUNNY     82  64  54 W9G15     30.15F HAZE
ESTHERVILLE    SUNNY     83  57  41 NW5       30.13F
LE MARS        SUNNY     84  70  61 SW12      30.15F
ORANGE CITY    SUNNY     82  64  54 W8        30.15F
SHELDON        SUNNY     84  64  51 W8        30.14S
SIOUX CITY     SUNNY     86  67  52 W10       30.15F
SPENCER        SUNNY     86  61  42 W9        30.14F
STORM LAKE     SUNNY     82  66  57 W8G18     30.17F
$$

ABBREVIATIONS USED IN REMARKS
   TC - TEMPERATURE IN CELSIUS
  WCI - WIND CHILL INDEX
   HX - HEAT INDEX
  VSB - VISIBILITY



USA.gov is the U.S. government's official web portal to all federal, state and local government web resources and services.